Regional Weather Roundup
Issued by NWS

Home | Current Version | Previous Version | Text Only | Print | Product List | Glossary On
Versions: 1 2 3 4 5 6 7 8 9 10 11 12 13 14 15 16 17 18 19 20 21 22 23 24 25 26 27 28 29 30 31 32 33 34 35 36 37 38 39 40 41 42 43 44 45 46 47 48 49 50
000
ASUS43 KOAX 012102
RWRNE

WEATHER ROUNDUP FOR NEBRASKA
NATIONAL WEATHER SERVICE OMAHA NE
400 PM CDT WED JUL 01 2015

NOTES: SATELLITE DATA IS BEING USED TO AUGMENT CLOUD COVER ABOVE
       12000 FEET.
       "FAIR" INDICATES FEW OR NO CLOUDS BELOW 12,000 FEET WITH NO
       SIGNIFICANT WEATHER AND/OR OBSTRUCTIONS TO VISIBILITY.

  * THESE STATIONS DO NOT REPORT WEATHER SUCH AS RAIN...SNOW OR FOG.

NEZ001>004-019>022-054>056-012200-
NEBRASKA PANHANDLE

CITY           SKY/WX    TMP DP  RH WIND       PRES   REMARKS
SCOTTSBLUFF    SUNNY     94  48  20 S3        30.01F HX  90
ALLIANCE       SUNNY     89  52  28 CALM      30.02F
CHADRON        SUNNY     89  61  38 VRB6      29.98F
KIMBALL          N/A    N/A N/A N/A MISG        N/A
SIDNEY         SUNNY     92  54  27 N6        30.05F HX  90
$$

NEZ057>060-069>072-079>082-012200-
SOUTHWEST NEBRASKA

CITY           SKY/WX    TMP DP  RH WIND       PRES   REMARKS
NORTH PLATTE   SUNNY     94  55  26 N16       29.93R HX  92
IMPERIAL       MOSUNNY   91  58  32 N7        29.96F HX  90
LEXINGTON      SUNNY     90  65  44 NE7       29.92S HX  92
MCCOOK         MOSUNNY   96  61  31 NE12G18   29.91S HX  96
$$

NEZ005>010-023>029-035>040-094-012200-
NORTH CENTRAL NEBRASKA

CITY           SKY/WX    TMP DP  RH WIND       PRES   REMARKS
VALENTINE      MOSUNNY   87  63  44 N14       29.94R
AINSWORTH      MOSUNNY   85  66  53 NE5       29.92F
BROKEN BOW     MOSUNNY   85  70  60 SE7       29.92S
ORD            SUNNY     83  67  58 CALM      29.89F
$$

NEZ041-046>049-061>064-073>077-083>087-012200-
SOUTH CENTRAL NEBRASKA

CITY           SKY/WX    TMP DP  RH WIND       PRES   REMARKS
GRAND ISLAND   SUNNY     82  68  62 E7        29.90F
AURORA         MOSUNNY   83  67  59 NE7       29.89S
HASTINGS       SUNNY     83  69  62 N6        29.89F
KEARNEY *      SUNNY     81  70  69 NE7       29.91S
$$

NEZ011>018-030>034-042>045-012200-
NORTHEAST NEBRASKA

CITY           SKY/WX    TMP DP  RH WIND       PRES   REMARKS
NORFOLK        PTSUNNY   81  67  62 E10       29.89S
COLUMBUS *     CLOUDY    81  66  61 E8        29.90F
FREMONT        PTSUNNY   83  66  55 E10G17    29.88S
TEKAMAH        MOSUNNY   83  66  56 NE12      29.88S
$$

NEZ050>053-065>068-078-088>093-012200-
SOUTHEAST NEBRASKA

CITY           SKY/WX    TMP DP  RH WIND       PRES   REMARKS
LINCOLN        PTSUNNY   86  70  58 E7        29.84F HX  90
OMAHA EPPLEY   MOSUNNY   84  68  58 E10       29.86S
FALLS CITY     PTSUNNY   84  74  71 E7        29.82F HX  91
$$

NEZ044-045-051>053-067-012200-
OMAHA AREA

CITY           SKY/WX    TMP DP  RH WIND       PRES   REMARKS
OMAHA EPPLEY   MOSUNNY   84  68  58 E10       29.86S
FREMONT        PTSUNNY   83  66  55 E10G17    29.88S
MILLARD        MOSUNNY   83  69  62 E6        29.86S
OFFUTT AFB     PTSUNNY   85  68  56 E9        29.87S
$$


USA.gov is the U.S. government's official web portal to all federal, state and local government web resources and services.